When you browse on this site, cookies collect data to enhance your experience and personalize the content and advertising you see.
Visit our Privacy Policy to learn more. By continuing to use the site, you agree to this use of cookies and data.
  • In Switzerland
  • List of Countries
  • For 7 days
  • Water Temperature
  • Satellite Maps
  • Weather Map
  • Weather Widgets
  • user-avatar
    Login

    Hourly Weather Kuzminki

    Today, 20 June, Thursday

    Time Temperature Precipitation Wind Pressure Humidity
    00:00 +18°C° 0 mm 1 mps 746 mmHg 77%
    01:00 +18°C° 0 mm 1 mps 746 mmHg 77%
    02:00 +16°C° 0 mm 1 mps 746 mmHg 77%
    03:00 +16°C° 0 mm 1 mps 746 mmHg 77%
    04:00 +18°C° 0 mm 1 mps 747 mmHg 78%
    05:00 +18°C° 0 mm 1 mps 747 mmHg 79%
    06:00 +19°C° 0 mm 1 mps 747 mmHg 80%
    07:00 +21°C° 0 mm 1 mps 747 mmHg 75%
    08:00 +22°C° 0 mm 1 mps 747 mmHg 71%
    09:00 +24°C° 0 mm 1 mps 747 mmHg 66%
    10:00 +25°C° 0 mm 1 mps 747 mmHg 62%
    11:00 +26°C° 0 mm 1 mps 747 mmHg 58%
    12:00 +27°C° 0 mm 1 mps 747 mmHg 53%
    13:00 +27°C° 0 mm 1 mps 747 mmHg 52%
    14:00 +28°C° 0 mm 1 mps 747 mmHg 51%
    15:00 +28°C° 0 mm 1 mps 747 mmHg 50%
    16:00 +28°C° 0 mm 1 mps 747 mmHg 53%
    17:00 +28°C° 0 mm 1 mps 747 mmHg 56%
    18:00 +25°C° 0 mm 0 mps 747 mmHg 59%
    19:00 +26°C° 0 mm 1 mps 747 mmHg 62%
    20:00 +24°C° 0 mm 1 mps 747 mmHg 64%
    21:00 +22°C° 0 mm 1 mps 747 mmHg 67%
    22:00 +21°C° 0 mm 1 mps 747 mmHg 69%
    23:00 +20°C° 0 mm 1 mps 747 mmHg 71%

    Tomorrow, 21 June, Friday

    Time Temperature Precipitation Wind Pressure Humidity
    00:00 +20°C° 0 mm 1 mps 747 mmHg 73%
    01:00 +19°C° 0 mm 1 mps 747 mmHg 75%
    02:00 +19°C° 0 mm 1 mps 748 mmHg 76%
    03:00 +19°C° 0 mm 1 mps 748 mmHg 78%
    04:00 +19°C° 0 mm 1 mps 748 mmHg 78%
    05:00 +20°C° 0 mm 1 mps 748 mmHg 78%
    06:00 +21°C° 0 mm 1 mps 748 mmHg 79%
    07:00 +22°C° 0 mm 1 mps 748 mmHg 74%
    08:00 +24°C° 0 mm 1 mps 748 mmHg 70%
    09:00 +25°C° 0 mm 2 mps 748 mmHg 66%
    10:00 +26°C° 0 mm 2 mps 748 mmHg 62%
    11:00 +27°C° 0 mm 2 mps 748 mmHg 58%
    12:00 +28°C° 0 mm 2 mps 748 mmHg 54%
    13:00 +28°C° 0 mm 2 mps 748 mmHg 56%
    14:00 +28°C° 0 mm 2 mps 748 mmHg 58%
    15:00 +28°C° 0 mm 2 mps 748 mmHg 59%
    16:00 +27°C° 0.1 mm 2 mps 748 mmHg 63%
    17:00 +27°C° 0.1 mm 2 mps 748 mmHg 66%
    18:00 +27°C° 0.1 mm 2 mps 747 mmHg 69%
    19:00 +25°C° 0 mm 2 mps 747 mmHg 72%
    20:00 +24°C° 0 mm 2 mps 747 mmHg 75%
    21:00 +21°C° 0 mm 2 mps 747 mmHg 78%
    22:00 +21°C° 0 mm 2 mps 747 mmHg 79%
    23:00 +20°C° 0 mm 2 mps 747 mmHg 79%

    Day after tomorrow, 22 June, Saturday

    Time Temperature Precipitation Wind Pressure Humidity
    00:00 +19°C° 0 mm 2 mps 748 mmHg 79%
    01:00 +19°C° 0 mm 2 mps 748 mmHg 81%
    02:00 +19°C° 0 mm 2 mps 748 mmHg 82%
    03:00 +19°C° 0 mm 2 mps 748 mmHg 84%
    04:00 +19°C° 0 mm 2 mps 748 mmHg 84%
    05:00 +19°C° 0 mm 3 mps 748 mmHg 84%
    06:00 +20°C° 0 mm 3 mps 748 mmHg 84%
    07:00 +21°C° 0 mm 3 mps 748 mmHg 80%
    08:00 +24°C° 0 mm 3 mps 748 mmHg 77%
    09:00 +25°C° 0 mm 4 mps 748 mmHg 73%
    10:00 +26°C° 0.1 mm 4 mps 748 mmHg 68%
    11:00 +27°C° 0.1 mm 4 mps 748 mmHg 64%
    12:00 +28°C° 0.1 mm 5 mps 748 mmHg 60%
    13:00 +28°C° 0 mm 5 mps 748 mmHg 60%
    14:00 +29°C° 0 mm 5 mps 748 mmHg 60%
    15:00 +29°C° 0 mm 5 mps 747 mmHg 59%
    16:00 +28°C° 0 mm 4 mps 747 mmHg 63%
    17:00 +28°C° 0 mm 4 mps 747 mmHg 68%
    18:00 +28°C° 0 mm 3 mps 747 mmHg 72%
    19:00 +26°C° 0 mm 3 mps 747 mmHg 75%
    20:00 +25°C° 0 mm 3 mps 747 mmHg 78%
    21:00 +22°C° 0 mm 3 mps 747 mmHg 81%
    22:00 +22°C° 0 mm 3 mps 747 mmHg 82%
    23:00 +21°C° 0 mm 3 mps 747 mmHg 82%

    23 June, Sunday

    Time Temperature Precipitation Wind Pressure Humidity
    00:00 +21°C° 0 mm 3 mps 747 mmHg 83%
    01:00 +20°C° 0 mm 3 mps 747 mmHg 84%
    02:00 +20°C° 0 mm 3 mps 747 mmHg 86%
    03:00 +19°C° 0 mm 3 mps 747 mmHg 88%
    04:00 +20°C° 0 mm 2 mps 747 mmHg 87%
    05:00 +20°C° 0 mm 2 mps 748 mmHg 87%
    06:00 +21°C° 0 mm 2 mps 748 mmHg 86%
    07:00 +23°C° 0.1 mm 2 mps 748 mmHg 82%
    08:00 +25°C° 0.1 mm 3 mps 748 mmHg 78%
    09:00 +26°C° 0.1 mm 3 mps 748 mmHg 73%
    10:00 +27°C° 0.2 mm 3 mps 748 mmHg 71%
    11:00 +27°C° 0.2 mm 3 mps 748 mmHg 69%
    12:00 +28°C° 0.2 mm 4 mps 748 mmHg 67%
    13:00 +28°C° 0.3 mm 4 mps 748 mmHg 66%
    14:00 +28°C° 0.3 mm 4 mps 748 mmHg 65%
    15:00 +29°C° 0.3 mm 4 mps 748 mmHg 63%
    16:00 +28°C° 0.7 mm 3 mps 748 mmHg 67%
    17:00 +28°C° 0.7 mm 3 mps 748 mmHg 70%
    18:00 +27°C° 0.7 mm 2 mps 748 mmHg 74%
    19:00 +26°C° 0.2 mm 2 mps 748 mmHg 79%
    20:00 +24°C° 0.2 mm 2 mps 748 mmHg 84%
    21:00 +21°C° 0.2 mm 2 mps 748 mmHg 89%
    22:00 +21°C° 0 mm 3 mps 749 mmHg 90%
    23:00 +20°C° 0 mm 3 mps 749 mmHg 91%

    24 June, Monday

    Time Temperature Precipitation Wind Pressure Humidity
    00:00 +19°C° 0 mm 4 mps 749 mmHg 91%
    01:00 +18°C° 0 mm 4 mps 749 mmHg 90%
    02:00 +17°C° 0 mm 4 mps 749 mmHg 88%
    03:00 +15°C° 0 mm 4 mps 749 mmHg 86%
    04:00 +15°C° 0 mm 4 mps 749 mmHg 84%
    05:00 +15°C° 0 mm 4 mps 750 mmHg 82%
    06:00 +15°C° 0 mm 4 mps 750 mmHg 79%
    07:00 +17°C° 0.1 mm 4 mps 750 mmHg 76%
    08:00 +18°C° 0.1 mm 4 mps 750 mmHg 72%
    09:00 +19°C° 0.1 mm 5 mps 750 mmHg 69%
    10:00 +20°C° 0.1 mm 5 mps 751 mmHg 66%
    11:00 +21°C° 0.1 mm 5 mps 751 mmHg 64%
    12:00 +22°C° 0.1 mm 5 mps 751 mmHg 62%
    13:00 +22°C° 0 mm 5 mps 751 mmHg 61%
    14:00 +22°C° 0 mm 5 mps 751 mmHg 61%
    15:00 +23°C° 0 mm 5 mps 750 mmHg 61%
    16:00 +22°C° 0 mm 4 mps 751 mmHg 63%
    17:00 +22°C° 0 mm 4 mps 751 mmHg 65%
    18:00 +22°C° 0 mm 4 mps 751 mmHg 67%
    19:00 +21°C° 0 mm 3 mps 751 mmHg 70%
    20:00 +19°C° 0 mm 3 mps 751 mmHg 72%
    21:00 +18°C° 0 mm 3 mps 751 mmHg 75%
    22:00 +17°C° 0 mm 3 mps 751 mmHg 74%
    23:00 +16°C° 0 mm 3 mps 751 mmHg 73%

    25 June, Tuesday

    Time Temperature Precipitation Wind Pressure Humidity
    00:00 +16°C° 0 mm 3 mps 751 mmHg 72%
    01:00 +14°C° 0 mm 3 mps 751 mmHg 74%
    02:00 +14°C° 0 mm 3 mps 752 mmHg 75%
    03:00 +13°C° 0 mm 3 mps 752 mmHg 76%
    04:00 +13°C° 0 mm 3 mps 752 mmHg 77%
    05:00 +14°C° 0 mm 3 mps 752 mmHg 79%
    06:00 +15°C° 0 mm 2 mps 752 mmHg 80%
    07:00 +16°C° 0 mm 3 mps 752 mmHg 74%
    08:00 +18°C° 0 mm 3 mps 752 mmHg 69%
    09:00 +19°C° 0 mm 3 mps 752 mmHg 63%
    10:00 +20°C° 0 mm 3 mps 752 mmHg 60%
    11:00 +21°C° 0 mm 3 mps 752 mmHg 56%
    12:00 +22°C° 0 mm 3 mps 752 mmHg 53%
    13:00 +22°C° 0 mm 3 mps 752 mmHg 53%
    14:00 +22°C° 0 mm 3 mps 751 mmHg 53%
    15:00 +22°C° 0 mm 3 mps 751 mmHg 54%
    16:00 +22°C° 0 mm 3 mps 751 mmHg 56%
    17:00 +23°C° 0 mm 2 mps 750 mmHg 58%
    18:00 +21°C° 0 mm 2 mps 750 mmHg 61%
    19:00 +20°C° 0 mm 2 mps 750 mmHg 64%
    20:00 +19°C° 0 mm 1 mps 750 mmHg 68%
    21:00 +16°C° 0 mm 1 mps 750 mmHg 72%
    22:00 +15°C° 0 mm 0 mps 750 mmHg 72%
    23:00 +15°C° 0 mm 0 mps 750 mmHg 73%
    Show more